Simultaneous Nadir Overpasses (SNOs) Predictions

Prediction of SNOs between GOES-15 and METOP-B Satellite Orbit:

Table of predicted SNOs for the next 14.0 days since TLE Epoch: 7/23/2022
Index Date Time (GOES-15) GOES-15 Lat,Lon METOP-B Lat,Lon Distance(km) Time Diff (sec)
1 07/23/2022 18:14:07 -0.08,-128.26 0.43,-130.63 268.95 80
2 07/24/2022 17:50:47 -0.11,-128.24 -0.70,-125.63 297.06 80
3 07/26/2022 06:12:26 0.06,-128.16 -0.41,-130.21 234.37 80
4 07/27/2022 05:49:06 0.10,-128.13 0.72,-125.22 331.02 80
5 07/28/2022 18:10:38 -0.05,-128.13 0.30,-129.78 187.53 80
6 07/29/2022 17:47:18 -0.09,-128.10 -0.82,-124.79 377.88 80
7 07/31/2022 06:08:56 0.05,-128.02 -0.27,-129.36 153.85 80
8 08/01/2022 05:45:37 0.08,-127.99 0.86,-124.37 411.13 80
9 08/02/2022 18:07:08 -0.03,-127.98 0.16,-128.93 108.13 80
10 08/03/2022 17:43:49 -0.07,-127.95 -0.97,-123.94 456.91 80
11 08/05/2022 06:05:27 0.02,-127.86 -0.11,-128.52 75.29 80
